STARLINK-37631, 69369

Orbit data source: Space-Track

STARLINK-37631, 69369 is a payload satellite owned by SpaceX/Seattle (US) in LEO that was launched on Thu, 04 Jun 2026 UTC via an FALCON 9 launch vehicle from the Air Force Eastern Test Range (AFETR). Payload-class satellites include a variety of spacecraft equipped with specific instruments for various scientific and technological missions. These include communications satellites like Starlink; space stations such as the ISS; scientific satellites like the Hubble; Earth observation satellites from companies like Planet Labs, Umbra, and HawkEye 360; GPS; miniature CubeSats for education and research; and military/defense satellites.

Loading next visibility...
Identifier
69369, 2026-123S
Orbit
LEO
Country
Flag of USUS
Related business
Manufacturer
SpaceX/Seattle
Mission
Operational spacecraft
Bus & Motor
STARLINK V2MO, Unknown motor
Mass
575 kg wet, ~530 kg dry
Launch date (UTC)
2026-06-04 (2 months ago)
Launch vehicle
FALCON 9
Launch site
Air Force Eastern Test Range (AFETR)
Object type
Payload
Rocket body
Debris
Shape & HBR
Unknown shape, 17.7 m
Radar Cross Section
Large (>1 m²)

Expand to show TLE details & history
Last TLE update: 11 hours ago

TLE from 11 hours ago
0 STARLINK-37631
1 69369U 26123S   26202.22693439  .00249781  00000-0  15812-2 0  9997
2 69369  53.1585  71.7054 0000561 110.6684 249.4396 15.75307879  7415
Epoch: 2026-07-21T05:26Z
TLE epoch observation values (Epoch: 2026-07-21T05:26:47.131Z)
Latitude
-0.00005°
Longitude
51.00932°
Altitude
344.805 km
Speed
7.703 km/s
True Right ascension
04h 46m 49s
True Declination
0° 00' 00"
Sunlit
Object was in daylight at epoch
Visualization orbit readout
Latitude
Unknown
Longitude
Unknown
Altitude
Unknown
Speed
Unknown
Apparent Right ascension
Unknown
Apparent Declination
Unknown
Sunlit
N/A
Visualization observer readout
Local Sidereal Time
04:56:09
Azimuth
Unknown
Elevation
Unknown
Doppler factor
Unknown
Orbital elements
Apogee altitude
344.394 km
Perigee altitude
343.64 km
Semi-major axis
6,722.154 km
Eccentricity
0.00006
Inclination
53.1585°
RAAN
71.7054°
Arg. of periapsis
110.6684°
True anomaly
249.43358°
Mean anomaly
249.4396°
Eccentric anomaly
249.43659°
Mean motion
3.93804 °/min
Orbital period
91.42 mins
BSTAR
0.0015812
Loading maneuver chart data...
Computing Atmospheric mass density...
Loading historical data...
Loading historical data...
Loading historical data...
Loading historical data...
Loading historical data...
Loading historical data...
Loading historical data...

Documentation

Showing up to 5 results
|